This is the latest recevied weather packets stored in our database for station/object K2ATL. If no packets are shown the sender has not sent any weather packets the latest 1 day(s).
| Time | Temp. | Humidity | Pressure | Rain* | Wind** | Luminosity | Snow |
|---|---|---|---|---|---|---|---|
| 1778022455 | 20.56° C | 48% | 1098.5 hPa | 0 mm | 0.45 m/s, 86° | 27 W/m² | - |
| 1778022151 | 21.11° C | 45% | 1099 hPa | 0 mm | 0.45 m/s, 133° | 26 W/m² | - |
| 1778021848 | 21.11° C | 46% | 1099 hPa | 0 mm | 0.45 m/s, 133° | 31 W/m² | - |
| 1778021545 | 21.11° C | 46% | 1099.1 hPa | 0 mm | 0 m/s | 37 W/m² | - |
| 1778021240 | 21.11° C | 44% | 1098.7 hPa | 0 mm | 0.45 m/s, 54° | 74 W/m² | - |
| 1778020938 | 21.11° C | 45% | 1098.7 hPa | 0 mm | 0.45 m/s, 146° | 121 W/m² | - |
| 1778020635 | 21.11° C | 44% | 1098.8 hPa | 0 mm | 0.89 m/s, 141° | 91 W/m² | - |
| 1778020331 | 21.11° C | 44% | 1098.9 hPa | 0 mm | 0.45 m/s, 130° | 95 W/m² | - |
| 1778020027 | 21.11° C | 43% | 1099.1 hPa | 0 mm | 1.34 m/s, 133° | 76 W/m² | - |
| 1778019723 | 21.11° C | 43% | 1099.2 hPa | 0 mm | 0.89 m/s, 128° | 99 W/m² | - |
| 1778019421 | 21.11° C | 43% | 1099.1 hPa | 0 mm | 0.89 m/s, 134° | 118 W/m² | - |
| 1778019117 | 21.67° C | 43% | 1099.2 hPa | 0 mm | 1.34 m/s, 127° | 99 W/m² | - |
| 1778018814 | 21.67° C | 42% | 1099.2 hPa | 0 mm | 1.34 m/s, 145° | 124 W/m² | - |
| 1778018512 | 21.67° C | 42% | 1099.3 hPa | 0 mm | 0.89 m/s, 146° | 97 W/m² | - |
| 1778018210 | 21.67° C | 42% | 1099.2 hPa | 0 mm | 0.89 m/s, 126° | 92 W/m² | - |
| 1778017908 | 22.22° C | 41% | 1098.9 hPa | 0 mm | 1.34 m/s, 69° | 142 W/m² | - |
| 1778017605 | 22.22° C | 40% | 1099.1 hPa | 0 mm | 2.24 m/s, 174° | 158 W/m² | - |
| 1778017302 | 22.22° C | 41% | 1098.8 hPa | 0 mm | 1.34 m/s, 150° | 193 W/m² | - |
| 1778017000 | 22.78° C | 41% | 1099 hPa | 0 mm | 0.89 m/s, 132° | 204 W/m² | - |
| 1778016696 | 22.78° C | 40% | 1098.7 hPa | 0 mm | 1.34 m/s, 143° | 199 W/m² | - |
| 1778016392 | 22.78° C | 39% | 1098.7 hPa | 0 mm | 1.34 m/s, 137° | 208 W/m² | - |
| 1778016090 | 22.78° C | 40% | 1098.8 hPa | 0 mm | 1.34 m/s, 132° | 284 W/m² | - |
| 1778015787 | 22.78° C | 39% | 1098.8 hPa | 0 mm | 1.34 m/s, 173° | 304 W/m² | - |
| 1778015484 | 22.78° C | 38% | 1098.9 hPa | 0 mm | 0.45 m/s, 142° | 263 W/m² | - |
| 1778015180 | 23.89° C | 37% | 1098.9 hPa | 0 mm | 1.79 m/s, 204° | 206 W/m² | - |
* Rain latest hour (hover to see other rain measurements)
** Current wind speed in m/s (hover to see current wind gust speed)